Torna al catalogo

NOAA 16 DEB

AttivoPO
NORAD 41668·DEBRIS·🇺🇸 United States

Lanciato Sep 21, 2000 da Vandenberg Space Force Base

Loading…

Prossimi Passaggi (prossime 24 ore)

TLE

AggiornatoSource: Space-Track

Epoca: Sep 12, 2026, 10:39 UTC

1 41668U 00055PH  26255.44418676  .00009339  00000-0  14232-2 0  9993
2 41668  98.9396 129.9913 0023602 146.3732 213.8977 14.73965767544762

Traccia NOAA 16 DEB in tempo reale con AllMySat

Download on the App Store